Location: Unspecified
(0.0000°N, 0.0000°E)
Time: 11:19:13
(UTC+00:00)

Tiros 1 - All Passes

Search period start: 27 February 2017 00:00
Search period end: 09 March 2017 00:00
Orbit: 631 x 664 km, 48.4° (Epoch: 26 February)

Date Brightness Start Highest point End Pass type
(mag) Time Alt. Az. Time Alt. Az. Time Alt. Az.
27 Feb - 04:30:12 10° S 04:33:51 21° SE 04:37:27 10° E visible
27 Feb - 06:11:45 10° WSW 06:15:54 30° NW 06:20:01 10° N daylight
27 Feb - 16:42:31 10° NNW 16:46:48 37° NE 16:51:07 10° ESE daylight
27 Feb - 18:25:51 10° W 18:28:51 17° SW 18:31:53 10° S daylight
28 Feb - 04:55:18 10° SSW 05:00:04 71° SE 05:04:46 10° NE visible
28 Feb - 17:08:23 10° NW 17:12:58 62° SW 17:17:36 10° SSE daylight
01 Mar - 03:40:45 10° S 03:44:11 19° SE 03:47:34 10° E visible
01 Mar - 05:21:56 10° WSW 05:26:14 33° NW 05:30:30 10° NNE visible
01 Mar - 15:53:00 10° NNW 15:57:09 33° NE 16:01:19 10° ESE daylight
01 Mar - 17:35:56 10° W 17:39:12 19° SW 17:42:29 10° S daylight
02 Mar - 04:05:39 10° SSW 04:10:24 63° SE 04:15:05 10° NE visible
02 Mar - 05:51:41 10° WNW 05:52:30 10° NW 05:53:18 10° NW visible
02 Mar - 16:18:43 10° NW 16:23:19 70° SW 16:27:58 10° SSE daylight
03 Mar - 02:51:20 10° S 02:54:30 17° SE 02:57:38 10° E night (unlit)
03 Mar - 04:32:08 10° WSW 04:36:35 38° NW 04:40:57 10° NNE visible
03 Mar - 15:03:29 10° N 15:07:29 29° NE 15:11:32 10° ESE daylight
03 Mar - 16:46:03 10° W 16:49:32 21° SW 16:53:03 10° S daylight
04 Mar - 03:16:02 10° SSW 03:20:44 55° SE 03:25:24 10° NE visible
04 Mar - 05:01:03 10° WNW 05:02:49 12° NW 05:04:34 10° NNW visible
04 Mar - 15:29:03 10° NW 15:33:40 80° SW 15:38:20 10° SE daylight
05 Mar - 02:01:58 10° SSE 02:04:50 16° SE 02:07:39 10° E night (unlit)
05 Mar - 03:42:22 10° WSW 03:46:55 42° NW 03:51:24 10° NNE visible
05 Mar - 14:14:00 10° N 14:17:51 26° NE 14:21:43 10° ESE daylight
05 Mar - 15:56:12 10° WNW 15:59:52 23° SW 16:03:35 10° S daylight
06 Mar - 02:26:25 10° SSW 02:31:04 49° SE 02:35:41 10° NE night (unlit)
06 Mar - 04:10:49 10° W 04:13:08 13° NW 04:15:28 10° NNW night (unlit)
06 Mar - 14:39:25 10° NW 14:44:01 90° WSW 14:48:41 10° SE daylight
07 Mar - 01:12:40 10° SSE 01:15:09 14° SE 01:17:36 10° E night (unlit)
07 Mar - 02:52:37 10° SW 02:57:15 48° NW 03:01:50 10° NNE night (unlit)
07 Mar - 13:24:32 10° N 13:28:11 23° NE 13:31:52 10° ESE daylight
07 Mar - 15:06:22 10° WNW 15:10:13 26° SW 15:14:05 10° S daylight
08 Mar - 01:36:49 10° SSW 01:41:24 43° SE 01:45:56 10° ENE night (unlit)
08 Mar - 03:20:42 10° W 03:23:28 15° NW 03:26:13 10° NNW night (unlit)
08 Mar - 13:49:46 10° NW 13:54:22 81° NE 13:59:01 10° SE daylight
